Regional Weather Roundup
Issued by NWS Grand Forks, ND

Home | Current Version | Previous Version | Graphics & Text | Print | Product List | Glossary On
Versions: 1 2 3 4 5 6 7 8 9 10 11 12 13 14 15 16 17 18 19 20 21 22 23 24 25 26 27 28 29 30 31 32 33 34 35 36 37 38 39 40 41 42 43 44 45 46 47 48 49 50
000
ASUS43 KFGF 201010
RWRFGF
PRAIRIE TO PINES  WEATHER ROUNDUP
NATIONAL WEATHER SERVICE EASTERN NORTH DAKOTA/GRAND FORKS ND
500 AM CDT MON OCT 20 2014

 **SATELLITE DATA USED TO AUGMENT SKY COVER AT AUTOMATED STATIONS**
 *****  WEATHER ACROSS EASTERN NORTH DAKOTA  *****

CITY           SKY/WX    TMP DP  RH WIND       PRES   REMARKS
GRAND FORKS    CLEAR     38  35  89 NW8       30.01R
GRAND FRKS AFB CLEAR     40  38  95 N6        30.02R
GRAND FRKS NWS   N/A     39 N/A N/A N7          N/A
DEVILS LAKE    CLEAR     37  30  75 CALM      30.01R
FARGO          CLEAR     38  34  85 CALM      30.00R
WAHPETON ARPT  SUNNY     37  32  81 N5        30.00R
$$

 ***** WEATHER ACROSS CENTRAL AND WESTERN NORTH DAKOTA  *****

CITY           SKY/WX    TMP DP  RH WIND       PRES   REMARKS
BISMARCK       MOCLDY    35  34  96 CALM      30.06R
MINOT          CLEAR     46  34  62 SW10      30.00S
JAMESTOWN      CLEAR     40  35  83 CALM      30.02R
MINOT AFB      CLEAR     42  36  78 SW8       29.99S
GARRISON         N/A     35  31  85 CALM      30.02S
WILLISTON      CLEAR     34  31  88 CALM      29.99S
DICKINSON      CLEAR     39  34  82 S9        30.01S
HETTINGER      CLEAR     38  34  85 CALM      30.06S
$$

 *****  OTHER AIRPORT OBSERVATIONS IN OUR AREA  *****

CITY           SKY/WX    TMP DP  RH WIND       PRES   REMARKS
WALHALLA       FAIR      36  36 100 W3        30.03R
GRAFTON AIRPOR FAIR      39  39 100 NW9       30.02R
VALLEY CITY AR FAIR      39  39 100 NW9       30.02R
CANDO          FAIR      34  32  93 NE7       30.03R
CAVALIER APRT  FAIR      39  37  93 NW7       30.03R
GWINNER        SUNNY     43  36  75 W8        30.02R
SHEYENNE NWR     N/A     37  33  87 W2        29.95
ROLLA          FAIR      32  30  93 CALM      30.03S
 ***** THE ABOVE OBSERVATIONS ARE NON NWS ARE NOT QUALITY
       CONTROLLED AND MAY MIS-REPORT RAIN FOR SNOW...
$$

  *****  WEATHER ACROSS NORTHERN MINNESOTA  *****

CITY           SKY/WX    TMP DP  RH WIND       PRES   REMARKS
FLAG ISLAND    MOCLDY    43  39  87 NW15      29.95R
WARROAD        MOCLDY    39  36  87 NW7       29.98R
ROSEAU         PTCLDY    37  34  87 NW6       29.99R
HALLOCK        CLEAR     37  36  93 N8        30.01R
THF RVR FALLS  CLEAR     41  37  87 NW6       29.99R
BAUDETTE       PTCLDY    40  38  93 W6        29.95R
WASKISH        CLEAR     43  39  87 CALM      29.95R
CROOKSTON      CLEAR     37  36  93 N5        30.01R
STEPHEN NDAWN    N/A     37  36  93 N3          N/A
GREENBUSH NDAW   N/A     37  36  93 NW5         N/A
$$
  *****  WEATHER ACROSS CENTRAL AND WEST MINNESOTA  *****

CITY           SKY/WX    TMP DP  RH WIND       PRES   REMARKS
FOSSTON        CLEAR     36  34  93 CALM      29.99R
BEMIDJI        CLEAR     35  33  94 W6        29.96R
PARK RAPIDS    CLEAR     35  33  92 NW7       29.95R
ELBOW LAKE     FAIR      40  36  86 NW6       29.98R
WADENA         CLEAR     41  37  87 W5        29.96R
DETROIT LAKES  CLEAR     43  37  81 NW8       29.99R
MOORHEAD       CLEAR     39  39 100 CALM      30.00R
FERGUS FALLS   CLEAR     37  34  87 CALM      30.00R
MORRIS MN      CLEAR     37  34  87 NW7       29.98R
STAPLES        CLEAR     39  37  93 NW3       29.95R
$$
  *****  WEATHER ELSEWHERE ACROSS MINNESOTA  *****

CITY           SKY/WX    TMP DP  RH WIND       PRES   REMARKS
DULUTH         CLEAR     45  40  82 NW8       29.87R
INTRNTL FALLS  MOCLDY    33  33 100 W3        29.91R
ELY            CLOUDY    45  39  81 NW6       29.86S
CLOQUET        CLEAR     45  39  81 W5        29.89R
WHEATON        CLEAR     39  36  87 W5        30.02R
BRAINERD       CLEAR     42  40  92 NW5       29.94R
HIBBING        CLOUDY    38  34  85 CALM      29.90R
ALEXANDRIA     CLEAR     43  38  82 NW7       29.98R
SAINT CLOUD    CLEAR     48  40  73 VRB7      29.94R
MINNEAPOLIS    CLEAR     49  41  74 CALM      29.92R
$$

  *****  WEATHER ACROSS SOUTH DAKOTA  *****

CITY           SKY/WX    TMP DP  RH WIND       PRES   REMARKS
SIOUX FALLS    CLEAR     40  36  86 CALM      30.03R
BROOKINGS      NOT AVBL
WATERTOWN      CLEAR     36  33  89 CALM      30.03R
HURON          CLEAR     35  32  88 CALM      30.05R
SISSETON         N/A     39  35  86 NW6       30.00R
ABERDEEN       PTCLDY    33  30  88 SE3       30.04R
MITCHELL       CLEAR     40  36  86 W5        30.06R
PIERRE         PTCLDY    42  34  73 CALM      30.06S
MOBRIDGE       MOCLDY    36  33  89 W3        30.04S
RAPID CITY     CLEAR     44  36  73 CALM      30.07F
$$

  *****  SOME WEATHER IN NEARBY STATES *****

CITY           SKY/WX    TMP DP  RH WIND       PRES   REMARKS
GLASGOW MT     CLEAR     45  36  70 E15       29.89S
GREAT FALLS MT CLEAR     56  28  34 S15       29.86F
CHEYENNE WY    CLEAR     40  33  76 W6        30.18F
SCOTTSBLUFF NE CLEAR     39  35  86 N7        30.11F
OMAHA NE       CLEAR     49  45  86 N7        30.00R
DES MOINES IA  CLEAR     50  44  80 N7        29.97R
DAVENPORT IA   CLEAR     46  42  86 W8        29.86S
CHICAGO IL     PTCLDY    50  43  77 SW6       29.81F
EAU CLAIRE WI  CLEAR     44  40  85 W5        29.88R
LA CROSSE WI   CLEAR     46  41  82 CALM      29.88R
$$

  *****  SOME NATIONAL WEATHER *****

CITY           SKY/WX    TMP DP  RH WIND       PRES   REMARKS
LA GUARDIA NY  MOCLDY    44  29  55 W7        30.10R
RALEIGH NC     PTCLDY    42  40  92 CALM      30.15R
ATLANTA GA     CLEAR     51  46  83 CALM      30.11R
NEW ORLEANS LA PTCLDY    60  56  86 CALM      30.02F
OKLAHOMA CITY  MOCLDY    57  53  86 S6        30.03F
ALBUQUERQUE NM PTCLDY    50  42  74 W6        30.18S
SALT LAKE CITY CLEAR     49  39  68 SE5       30.03R
LOS ANGELES CA PTCLDY    65  62  90 CALM      29.89S
BOISE ID       CLEAR     53  32  44 E7        29.86F
SEATTLE WA     LGT RAIN  59  56  89 SE9       29.73S
$$

*** WEATHER ACROSS MANITOBA...SASKATCHEWAN AND ONTARIO ***
                ***ONTARIO***

CITY           SKY/WX    TMP DP  RH WIND       PRES   REMARKS
GERALDTON      FOG       37  37 100 N5        29.77R VSB 5/8
THUNDER BAY    CLOUDY    46  43  87 NW6       29.81R
SIOUX LOOKOUT  CLOUDY    43  41  93 N7        29.89R
TORONTO        CLOUDY    43  37  81 S6        29.90F
BIG TROUT LK   CLOUDY    32  32 100 NE8       29.96R FOG     WCI  25
PICKLE LAKE    NOT AVBL
DRYDEN         LGT RAIN  43  39  87 N5        29.90R
KENORA         MOCLDY    43  39  87 N6        29.94R
$$
                *** MANITOBA***

CITY           SKY/WX    TMP DP  RH WIND       PRES   REMARKS
BRANDON        CLEAR     32  30  93 E3        30.03S
DAUPHIN        CLEAR     30  28  93 SE3       30.00F
ISLAND LAKE    DRIZZLE   36  34  93 N5        30.03R
PILOT MOUND      N/A     32  30  93 W2          N/A
THE PAS        MOCLDY    41  39  93 SE9       29.99S
THOMPSON       NOT AVBL
WINNIPEG       CLOUDY    43  39  87 N6        30.04R
LYNN LAKE      CLOUDY    36  34  93 SE3       29.99S
CHURCHILL      CLOUDY    34  34 100 NW3       30.04R
GILLAM         CLOUDY    36  34  93 NW6       30.04R
$$
                ***SASKATCHEWAN***

CITY           SKY/WX    TMP DP  RH WIND       PRES   REMARKS
ESTEVAN        CLEAR     39  36  87 SE8       29.97F
KINDERSLEY     PTCLDY    45  37  76 S13       29.73F
LLOYDMINSTER   CLEAR     43  36  75 S10       29.63
PRINCE ALBERT  PTCLDY    37  36  93 E10       29.81S
REGINA         CLEAR     39  36  87 E12       29.91F
YORKTON        CLEAR     41  37  87 S9        29.95S
N. BATTLEFORD  CLEAR     45  39  81 SE12      29.72F
LA RONGE       CLEAR     43  41  93 E7        29.85S
SASKATOON      CLEAR     43  39  87 S9        29.80S
SWIFT CURRENT  CLEAR     50  41  71 S16       29.80F
$$
NOTE: THESE ARE AUTOMATED STATIONS WITH LIMITED QUALITY CONTROL
      "FAIR" INDICATES FEW OR NO CLOUDS BELOW 12,000 FEET WITH NO
      SIGNIFICANT WEATHER AND/OR OBSTRUCTIONS TO VISIBILITY.
      SKY/WX - SKY CONDITION AND SIGNIFICANT WEATHER.
      TMP - AIR TEMPERATURE.    DP   - DEWPOINT TEMPERATURE.
      RH  - RELATIVE HUMIDITY.  PRES - PRESSURE.
      HX  - HEAT INDEX.         WCI  - WIND CHILL INDEX.
$



USA.gov is the U.S. government's official web portal to all federal, state and local government web resources and services.